User: anonymous   Login
Location: Stoke Bliss
(52.2667°N, 2.5167°W)
Time: 17:44:09
(UTC+00:00)
Language:

Gbstr 26 Del rocket - Orbit

View from above orbital plane
View from above orbital plane
View from above satellite
View from above satellite

Ground track
Ground track

The orbit data is extracted from the following two-line orbital elements,

1 25876U 99041E   21127.63830555 -.00000117  00000-0  19841-4 0  9996
2 25876  51.7650 110.4355 0530747 209.6183 147.3693 14.04568289114183
Epoch (UTC): 07 May 2021 15:19:09
Eccentricity: 0.0530747
inclination: 51.7650°
perigee height: 493 km
apogee height: 1263 km
right ascension of ascending node: 110.4355°
argument of perigee: 209.6183°
revolutions per day: 14.04568289
mean anomaly at epoch: 147.3693°
orbit number at epoch: 11418

The dashed part of the orbit path shows where the satellite is in the earth's shadow,  

DLR